GFSGL_prec_cloud_273.txt.gz
Cloud_Cover
4 1 5 5 5 5 36 5 5 5 3 5 5 5 1 0 1 0 1 0 14 58 99 100 100 100 100 100 100 100 79 100 61 99 71 96 44 70 17 45 5 5 8
5 5 5 5 5 5 5 12 28 14 8 54 5 5 0 0 0 13 12 0 10 31 60 100 100 15 100 85 97 82 100 47 29 87 35 45 38 100 58 10 98 16 100
5 5 5 5 5 35 33 56 14 8 34 40 9 5 5 3 0 0 2 4 12 12 9 35 64 96 65 53 5 4 4 34 88 100 20 74 57 42 94 60 71 76 100
5 5 5 5 5 50 48 33 22 91 83 26 16 11 5 5 0 1 0 2 2 13 46 88 83 100 95 20 74 6 25 2 12 27 32 97 87 96 56 46 48 59 85
20 5 5 5 68 92 98 74 73 69 23 20 11 9 5 5 4 7 2 1 1 4 24 74 57 81 9 32 50 5 1 5 14 97 92 63 48 19 65 98 82 94 51
88 72 100 53 83 100 100 100 72 30 5 5 8 4 8 5 5 0 0 0 0 5 5 98 80 90 91 28 81 2 1 68 29 93 97 81 77 42 91 100 79 79 64
100 100 100 92 100 100 100 64 70 44 20 20 30 5 7 5 3 0 0 0 5 5 5 12 22 97 5 60 4 5 10 64 85 5 60 42 9 67 73 20 88 91 100
100 100 100 100 100 100 97 98 98 66 25 81 39 8 3 4 1 0 0 5 5 4 35 26 68 69 23 5 0 5 5 35 11 52 94 18 32 12 16 81 86 90 98
100 100 100 100 100 100 76 58 100 100 38 11 8 1 4 20 2 0 9 5 5 39 97 100 42 71 9 5 0 4 5 32 100 100 86 46 10 72 5 8 96 57 87
100 100 100 100 100 99 59 100 100 100 8 5 5 3 2 0 10 5 43 5 5 45 94 16 8 82 58 4 0 4 16 94 5 99 71 84 67 67 53 100 99 100 100
100 100 100 100 100 91 96 100 100 60 5 1 3 5 0 62 100 16 5 5 4 0 5 73 9 5 3 0 4 12 89 15 9 98 96 70 41 73 95 70 99 100 92
100 100 100 100 100 95 98 100 34 35 5 0 0 41 100 34 95 4 3 5 0 0 3 4 4 0 3 5 5 5 5 10 95 100 94 71 99 77 82 72 77 95 96
100 100 100 100 100 100 94 46 71 6 12 55 93 63 98 100 96 0 0 0 3 0 5 2 0 5 5 94 19 29 52 93 86 100 100 43 100 78 84 85 62 97 76
100 100 100 100 100 94 98 5 33 8 72 80 77 87 100 93 48 5 2 2 1 3 3 2 28 83 5 60 18 48 23 61 100 100 99 69 90 96 92 100 100 100 99
100 100 100 100 100 97 9 31 18 42 40 38 79 50 5 54 5 1 0 0 0 0 0 8 100 100 2 54 33 70 96 84 100 100 99 93 100 67 80 72 100 100 100
100 100 100 100 51 62 7 90 45 31 5 5 6 5 5 5 2 0 0 0 0 0 1 91 100 93 88 100 72 100 92 73 100 98 100 100 100 100 92 58 97 99 100
100 100 100 100 85 5 69 6 5 20 14 5 4 5 5 0 0 0 0 0 0 0 40 100 100 62 5 98 97 80 100 96 100 92 100 85 100 96 83 93 94 97 100
100 100 100 92 17 10 65 49 38 98 73 5 5 5 4 0 0 0 0 6 18 59 94 100 100 99 17 17 42 91 100 92 90 92 68 95 100 98 100 100 88 92 98
100 100 96 57 8 65 10 89 90 56 98 6 5 11 2 0 0 1 3 32 99 100 100 93 94 98 63 100 77 95 100 100 100 100 100 100 98 100 98 98 86 12 96
100 100 96 30 15 28 93 100 95 100 14 79 100 95 5 0 4 12 56 100 100 99 86 57 58 100 100 95 67 92 100 100 100 100 100 100 72 100 100 88 74 91 96
100 95 84 100 100 96 100 100 100 10 88 83 19 0 0 0 5 5 5 24 65 54 17 5 5 92 100 100 100 100 100 100 100 100 99 89 96 75 100 100 83 100 100
100 100 100 97 100 100 100 100 84 46 100 90 19 0 0 0 5 5 5 5 5 5 5 5 5 62 80 48 70 90 100 93 81 54 22 23 54 30 60 72 72 100 100
100 100 100 93 100 100 100 100 91 97 87 7 0 2 5 5 5 5 5 5 5 5 5 5 5 6 5 5 34 82 79 41 41 26 52 78 78 83 81 86 90 96 93
100 100 59 100 100 100 100 97 50 100 11 3 0 2 5 5 5 5 2 1 0 2 5 5 5 5 5 5 44 46 59 24 43 7 59 74 73 90 99 88 90 85 83
100 100 100 100 100 100 100 81 98 83 7 0 0 3 3 2 0 0 0 0 0 4 2 2 0 3 5 45 32 59 16 49 46 26 40 60 75 78 82 84 90 92 100
100 100 100 100 100 100 100 100 40 6 2 0 0 0 0 0 0 0 0 0 0 0 0 0 0 5 54 67 44 11 46 60 18 58 78 80 83 76 76 80 100 100 100

GFSGL_prec_cloud_276.txt.gz
Cloud_Cover
37 12 1 0 2 5 5 5 5 24 5 5 5 5 6 0 0 0 4 3 3 12 18 80 5 35 8 5 5 19 0 8 16 5 11 83 5 5 4 4 5 5 53
88 98 49 5 5 5 5 5 36 5 5 26 33 72 43 0 0 0 0 94 0 4 5 5 5 12 33 34 5 19 7 0 0 5 1 1 43 12 54 78 9 5 5
18 5 0 0 2 0 2 75 88 55 26 100 59 78 17 2 0 0 0 2 0 0 2 6 100 66 85 40 14 5 7 5 0 0 5 5 4 100 77 42 90 66 86
20 5 5 5 4 5 76 100 59 34 99 100 100 44 6 5 1 0 1 2 0 0 6 5 28 70 36 98 92 11 5 1 0 4 5 20 5 32 35 8 5 36 5
5 42 24 62 5 90 100 93 100 48 100 100 100 6 5 2 3 4 2 0 0 0 1 5 5 74 88 89 6 17 18 2 3 5 5 5 4 10 5 5 5 5 5
5 5 15 94 100 100 82 100 100 98 100 100 40 8 49 5 5 5 2 0 0 0 2 3 58 98 19 100 64 5 2 0 5 5 5 5 5 7 5 5 5 5 5
8 68 76 78 97 100 100 100 100 100 82 100 12 93 91 5 4 0 0 0 0 0 2 8 18 100 100 88 5 4 0 0 3 29 5 5 5 5 5 5 5 5 47
5 53 99 100 100 100 98 93 100 100 100 98 95 13 5 5 1 0 0 0 0 0 0 10 75 5 0 3 5 5 1 0 15 10 85 86 6 8 5 5 5 70 98
26 100 100 100 100 100 92 100 100 100 100 100 68 6 3 2 5 0 5 5 2 5 42 83 34 6 5 5 5 2 0 3 86 83 5 5 28 5 58 8 6 21 44
89 100 100 100 100 100 100 100 100 100 100 100 31 5 5 1 46 64 79 62 5 4 4 4 5 5 5 5 1 0 0 4 5 5 66 86 72 78 91 47 53 37 100
100 100 100 100 100 100 100 100 100 100 100 100 7 5 5 69 97 89 42 13 2 0 0 1 5 5 2 0 1 1 5 5 5 8 83 100 82 28 95 87 64 84 64
100 100 100 100 100 100 100 100 100 100 100 7 14 5 58 95 73 49 92 4 0 0 0 3 4 0 4 2 5 5 5 5 63 81 100 100 100 34 76 86 100 100 98
100 100 100 100 100 100 100 100 100 100 64 9 66 100 100 99 26 5 0 5 4 0 0 0 0 5 5 5 5 5 5 5 5 90 100 100 99 46 99 100 100 100 100
100 100 100 100 100 100 100 100 100 100 48 96 46 87 90 98 78 5 5 5 0 0 0 0 5 6 88 16 3 60 26 70 82 90 100 96 81 78 78 85 87 100 100
100 100 100 100 100 100 100 100 100 90 70 25 38 95 98 7 5 5 3 0 0 0 0 4 40 8 70 51 3 2 75 85 86 69 77 85 94 100 84 84 70 78 64
100 100 100 100 100 100 100 100 100 8 58 5 5 95 11 0 5 2 0 0 0 0 1 5 54 99 5 5 1 5 13 73 9 20 51 92 98 100 95 99 99 69 5
100 100 100 100 98 100 100 100 69 43 34 5 45 97 0 5 3 5 0 0 0 5 5 10 100 29 5 5 5 14 99 95 74 78 100 98 99 100 100 94 97 92 6
100 100 100 100 100 100 100 100 24 71 100 43 100 85 4 4 4 2 0 0 1 94 84 82 49 78 62 5 5 13 65 47 92 99 99 72 97 58 18 50 29 59 14
100 100 100 100 100 100 100 100 100 100 100 38 100 87 5 0 0 0 2 5 4 96 75 5 5 11 92 6 12 10 67 91 100 100 100 100 100 74 6 53 43 68 30
100 100 100 100 100 100 100 100 100 100 100 100 100 67 6 5 5 10 39 91 88 11 12 5 5 36 100 85 82 18 23 63 100 100 88 99 54 5 5 17 22 8 61
100 100 100 100 100 100 100 100 95 69 100 100 40 32 5 0 0 5 5 5 5 5 5 5 5 5 92 51 5 5 76 85 58 30 71 46 5 5 43 62 60 61 86
100 100 100 100 100 100 100 100 96 100 73 100 100 5 2 0 5 5 5 5 5 5 5 5 5 48 18 5 5 24 76 51 50 49 39 33 28 71 83 84 68 76 90
100 100 100 100 98 100 100 100 100 87 93 100 100 8 5 2 5 5 0 2 0 0 5 5 5 5 5 5 66 30 74 69 40 36 41 44 83 82 90 93 87 94 94
99 100 100 100 100 100 100 100 100 93 100 100 100 2 5 0 0 0 0 0 0 3 5 0 4 5 5 7 44 87 33 39 33 65 62 77 79 90 96 87 98 100 89
100 100 100 100 100 100 100 100 56 100 100 100 66 2 0 0 0 0 0 0 0 0 0 0 0 5 65 14 75 11 19 19 38 71 75 85 82 78 92 91 100 91 100
100 100 100 100 100 100 100 20 100 100 100 61 0 0 0 0 0 0 0 0 0 0 0 0 5 17 8 5 5 5 12 71 76 99 83 87 87 96 100 100 100 100 100

GFSGL_prec_cloud_279.txt.gz
Cloud_Cover
100 100 100 100 100 95 97 95 7 4 0 0 0 5 5 5 5 5 1 0 0 0 0 0 4 5 5 6 68 5 5 12 5 1 0 0 0 5 5 64 24 59 7
100 100 100 100 100 100 100 100 90 5 5 5 5 5 5 3 5 1 4 36 0 0 0 2 5 53 86 24 89 65 62 44 7 5 0 0 2 4 6 99 5 73 42
100 100 100 100 100 100 100 100 100 96 5 6 10 15 5 5 5 5 0 0 0 0 0 0 2 5 43 72 55 100 64 5 6 6 0 0 5 73 86 12 8 6 53
100 100 100 100 100 100 100 92 100 100 90 14 36 48 5 6 7 5 0 0 0 0 0 2 5 24 66 93 100 91 12 5 4 0 0 0 4 5 5 4 5 5 5
100 100 100 100 100 100 100 90 99 100 82 100 85 100 5 56 32 7 2 0 0 0 1 5 5 16 61 100 98 79 4 5 2 0 0 0 4 5 5 5 5 0 0
100 100 85 65 100 100 99 100 100 100 19 15 100 100 99 93 95 5 3 2 0 0 5 5 1 5 97 40 100 10 12 5 5 0 0 5 5 5 5 5 5 3 5
100 100 100 100 100 100 99 95 100 100 66 54 100 100 100 100 40 3 0 0 0 0 0 0 5 82 98 59 22 41 5 5 0 0 4 85 7 12 10 5 5 5 5
100 100 100 100 100 100 100 100 100 100 100 100 100 100 100 99 11 0 0 0 5 5 3 3 1 6 13 76 100 54 6 0 0 4 100 100 26 90 65 14 12 24 16
100 100 100 100 100 100 100 100 100 100 95 100 100 100 100 83 1 5 14 64 100 81 5 0 2 3 90 93 8 0 0 0 0 5 60 16 73 100 43 15 92 99 41
100 100 100 100 100 100 100 100 100 54 77 100 100 100 100 2 5 35 80 8 97 53 0 0 0 0 5 3 0 0 0 4 5 5 73 84 92 100 95 72 100 100 100
100 100 100 100 100 94 100 100 95 5 80 100 100 100 100 5 21 99 100 59 57 4 0 0 1 4 5 0 0 2 5 5 5 5 74 99 100 100 100 95 99 100 100
100 100 100 100 100 100 100 100 96 98 99 100 100 100 33 42 94 57 55 48 5 2 0 0 1 1 3 5 5 2 1 5 6 26 68 100 100 100 93 99 100 100 100
100 100 100 100 100 100 100 100 100 100 100 100 100 100 47 17 38 13 100 5 5 1 0 0 0 2 9 5 5 5 3 5 36 32 99 67 96 93 99 74 70 78 100
100 100 100 100 100 100 100 100 100 100 100 100 100 100 77 94 13 98 73 5 5 0 0 1 7 5 5 5 5 37 2 6 28 24 80 100 99 65 68 47 94 79 85
100 100 100 100 100 100 100 95 92 87 68 100 100 100 54 68 34 100 22 4 0 0 0 2 4 8 5 5 5 1 5 67 99 100 100 100 100 99 100 100 79 67 15
100 100 87 100 100 100 100 100 85 95 100 100 100 84 44 20 73 37 5 0 0 0 3 5 5 5 89 61 1 5 55 43 93 100 100 100 100 100 98 97 64 67 18
100 100 100 100 100 100 100 100 83 100 100 100 56 5 23 21 29 5 5 5 0 5 12 6 5 65 28 4 3 5 5 5 36 96 100 100 100 100 95 95 5 28 11
100 100 100 100 100 93 90 100 100 100 100 100 30 7 99 8 2 5 10 4 4 3 42 70 81 76 5 5 5 5 5 5 18 95 100 100 100 100 92 93 56 58 29
100 100 97 100 100 100 100 100 100 100 99 12 54 90 44 5 5 93 40 5 5 5 81 4 5 1 5 5 5 5 5 39 54 58 79 51 71 69 92 81 70 85 64
100 100 100 100 100 100 100 100 100 100 95 100 100 100 45 5 97 100 6 5 51 39 5 4 0 2 5 5 5 5 18 52 64 59 48 11 5 5 5 22 58 30 79
100 100 100 100 99 100 100 100 100 100 100 100 100 100 17 100 100 31 4 1 0 0 0 3 0 1 0 0 5 5 39 64 71 63 5 5 5 5 69 74 75 73 78
100 100 100 100 100 100 100 100 100 100 100 100 100 98 80 100 26 0 0 0 0 0 0 0 0 0 0 2 7 40 60 42 36 13 34 47 74 79 78 83 67 74 93
100 100 100 97 100 99 100 100 100 71 52 100 100 100 100 30 4 0 0 0 0 0 0 0 0 0 1 5 5 29 35 11 5 5 44 84 82 77 81 92 87 100 88
100 100 100 100 100 100 100 99 100 100 98 100 100 100 10 10 0 0 0 0 0 0 0 0 0 0 5 5 11 31 21 9 5 5 5 54 74 87 82 76 87 100 100
100 100 100 97 100 100 100 100 100 100 100 100 100 100 100 42 0 0 0 0 0 0 0 0 0 5 5 5 6 5 8 58 7 32 79 82 78 85 78 84 100 100 100
100 100 100 100 100 100 100 100 99 17 98 100 100 100 97 0 0 0 0 0 0 0 0 0 2 5 5 5 5 5 28 100 92 82 82 82 93 91 96 100 100 97 100

GFSGL_prec_cloud_285.txt.gz
Cloud_Cover
100 100 100 100 100 100 100 100 100 100 100 100 2 0 2 3 5 0 0 0 5 44 55 0 3 0 1 5 5 29 100 100 59 29 9 5 4 0 0 0 1 8 32
100 100 100 100 100 100 100 100 100 100 100 100 6 4 3 10 4 0 2 5 45 45 1 5 5 0 0 5 5 86 64 87 100 52 15 40 5 5 0 0 4 5 5
100 100 100 100 100 100 100 100 100 100 99 46 24 5 5 5 5 1 2 5 100 5 5 12 32 0 2 5 5 90 79 60 96 84 100 59 8 5 0 1 5 5 5
100 100 100 100 100 100 100 100 100 100 100 84 100 16 15 64 0 18 5 33 66 5 98 100 5 0 5 6 76 54 100 68 99 56 98 4 5 0 4 74 5 5 5
100 100 100 100 100 100 100 100 100 100 100 61 96 36 48 38 1 5 5 43 47 79 65 37 1 5 5 24 100 83 100 100 12 97 73 1 0 4 6 36 5 5 5
100 100 100 100 100 100 100 100 100 100 100 100 88 100 88 46 25 15 74 90 46 100 98 4 5 22 62 42 41 3 34 60 1 5 4 5 5 88 100 95 19 17 26
97 98 100 100 100 100 100 100 100 100 100 100 100 98 67 100 100 60 30 99 100 19 64 5 72 94 5 49 6 5 4 2 1 0 4 5 5 17 68 83 100 71 99
100 99 47 100 100 100 100 100 100 100 100 100 100 96 100 100 100 79 84 100 78 23 27 86 91 42 5 49 5 4 0 4 0 3 5 5 5 42 100 100 100 100 100
88 100 100 94 59 100 100 100 100 100 100 100 100 100 100 100 70 18 99 58 92 50 66 26 36 5 19 5 5 0 45 48 1 5 17 6 83 100 100 100 100 100 100
88 5 3 38 87 100 100 100 100 100 100 100 100 100 100 100 56 47 14 6 51 85 6 5 5 7 6 59 5 66 49 4 0 1 18 95 99 96 84 99 100 100 100
98 92 32 56 94 93 100 100 100 100 100 100 100 100 100 72 74 23 38 92 100 24 5 5 5 5 8 74 43 38 4 4 1 5 59 74 98 100 88 56 93 100 100
100 100 99 93 100 100 100 100 100 100 100 100 100 100 100 100 98 19 77 100 62 6 5 5 5 14 100 48 5 5 5 5 5 5 7 63 87 100 100 87 75 100 100
62 78 99 80 100 100 100 100 100 100 100 100 100 100 100 100 100 34 100 67 5 26 32 5 10 100 83 5 4 5 5 5 5 5 33 63 100 100 100 89 100 100 95
59 77 100 100 100 100 100 100 100 100 100 100 100 100 100 100 96 75 100 39 37 100 42 5 99 100 9 3 3 40 5 5 7 5 34 100 94 78 71 71 95 84 92
98 91 99 100 100 100 100 100 100 100 100 100 100 100 100 100 100 97 38 7 100 16 7 25 72 79 4 5 45 24 5 5 15 42 33 100 100 100 100 56 17 5 8
100 100 100 100 100 100 100 100 100 100 100 100 100 100 100 90 84 7 8 91 34 5 5 100 79 1 5 65 21 50 5 8 34 18 24 53 66 89 69 99 15 5 13
37 100 100 100 100 100 100 100 100 100 100 100 100 100 100 97 73 62 65 21 72 6 8 86 39 5 5 5 5 7 5 51 55 35 35 43 43 14 5 5 55 60 69
92 82 97 100 100 100 100 100 100 100 100 100 100 100 99 27 64 51 34 81 24 67 72 19 5 5 4 0 4 5 5 37 58 54 53 19 10 13 53 64 28 32 74
20 44 86 100 100 100 100 100 100 100 100 100 100 84 37 15 64 5 2 6 12 60 75 3 3 0 0 0 3 5 5 5 11 29 23 8 5 32 80 61 66 69 60
94 61 100 100 100 100 100 100 100 100 100 100 100 46 55 60 5 4 3 99 100 99 5 0 0 0 0 0 1 5 5 5 5 33 38 58 5 43 84 99 97 100 93
30 86 100 100 100 100 100 100 100 100 100 100 94 41 41 35 40 4 23 100 100 13 0 0 0 0 0 0 5 5 5 5 5 10 56 34 21 79 70 72 80 91 100
27 98 100 100 100 100 100 100 100 100 100 42 5 8 75 47 6 22 100 100 94 0 0 0 0 0 0 4 5 5 5 5 58 86 93 91 78 91 93 86 90 97 100
32 100 100 100 100 100 100 100 100 100 78 20 26 86 62 3 93 100 100 98 1 0 0 0 0 0 5 0 0 5 15 88 100 100 100 92 83 96 100 99 100 100 100
100 100 100 100 100 100 100 100 100 100 72 60 94 5 3 42 100 100 100 3 0 0 0 0 0 4 4 5 5 21 75 97 47 69 66 93 100 100 100 100 100 100 100
100 100 100 100 100 100 100 100 100 100 100 87 8 6 42 100 100 100 97 0 0 0 0 0 0 0 5 5 18 51 53 72 68 94 97 99 92 94 99 96 100 100 100
100 100 100 100 100 100 100 100 100 82 82 100 88 34 99 100 100 98 0 0 0 0 0 0 0 5 5 5 9 12 63 83 96 100 90 91 94 100 88 77 100 100 100